Location: Hopewell Observatory
(38.8698°N, 77.6988°W)
Time: 17:54:28
(UTC-04:00)

Amateur Radio Satellites - All Passes

Search period start: 27 May 2015 17:24
Search period end: 28 May 2015 17:24
Location: Hopewell Observatory, 38.8698°N, 77.6988°W

Satellite Date Start Highest point End Downlink Frequencies (MHz)
Time Altitude Azimuth
HORYU 2 27 May 17:30:30 17:32:25 12° 271° (W) 17:34:04 437.375
RS-15 27 May 17:33:48 17:44:54 50° 47° (NE) 17:56:32 29.354- 29.394
MOZHAYETS 4 27 May 17:34:20 17:38:49 55° 100° (E) 17:43:19
YUBILEINY 27 May 17:34:23 17:39:59 19° 62° (ENE) 17:46:01 435.215
KKS-1 27 May 17:40:17 17:41:53 11° 296° (WNW) 17:43:14 437.445
BEESAT 3 27 May 17:59:05 18:02:59 47° 117° (ESE) 18:06:57 437.485
CUTE-I 27 May 18:05:12 18:10:05 40° 70° (ENE) 18:15:02 437.470
Cubesat XI-IV 27 May 18:25:37 18:30:49 62° 74° (ENE) 18:36:06 437.490
AIST 2 27 May 18:43:02 18:46:46 31° 114° (ESE) 18:50:35 435.215
BEESAT 2 27 May 18:48:36 18:52:40 60° 304° (WNW) 18:56:46 435.950
HO-68 27 May 19:00:44 19:03:01 12° 54° (NE) 19:05:45 435.675
STRAND 1 27 May 19:12:27 19:16:01 19° 92° (E) 19:19:45 437.568
MOZHAYETS 4 27 May 19:13:06 19:15:38 14° 294° (WNW) 19:17:59
CUBESAT XI-V 27 May 19:14:48 19:19:23 51° 99° (E) 19:23:59 437.345
YUBILEINY 27 May 19:29:23 19:38:07 85° 265° (W) 19:46:49 435.215
Cosmos 2491 27 May 19:31:11 19:39:38 56° 91° (E) 19:48:12 435.465 / 435.565
BEESAT 3 27 May 19:38:25 19:41:14 17° 314° (NW) 19:44:00 437.485
CUTE-I 27 May 19:46:01 19:50:19 24° 266° (W) 19:54:32 437.470
RS-15 27 May 19:46:23 19:57:36 52° 248° (WSW) 20:09:03 29.354- 29.394
AIST 1 27 May 19:53:24 19:54:08 11° 86° (E) 19:55:09
GOMX 1 27 May 19:59:25 20:03:46 29° 68° (ENE) 20:08:25 467.674
BRITE-PL 27 May 19:59:58 20:04:46 44° 72° (ENE) 20:09:59 437.365/2234.400
SEEDS 27 May 20:02:26 20:04:03 12° 66° (ENE) 20:05:53 437.485
Cubesat XI-IV 27 May 20:08:20 20:11:27 15° 270° (W) 20:14:20 437.490
COMPASS 1 27 May 20:14:10 20:16:05 13° 67° (ENE) 20:18:12 437.405
Cosmos 2504 27 May 20:17:02 20:21:26 17° 64° (ENE) 20:26:10 435.465 / 435.565
PRISM 27 May 20:20:03 20:24:11 69° 285° (WNW) 20:28:19 437.425
AIST 2 27 May 20:21:46 20:25:23 25° 311° (NW) 20:28:57 435.215
AAUSAT CUBESAT 2 27 May 20:25:14 20:27:33 15° 67° (ENE) 20:30:02 437.432
CINEMA 3 27 May 20:30:08 20:33:30 19° 67° (ENE) 20:37:03 145.822/145.860
M-CUBED/EXP-1 PRIME 27 May 20:37:06 20:40:21 57° 106° (ESE) 20:43:38 437.505
HO-68 27 May 20:42:30 20:49:35 66° 71° (ENE) 20:56:43 435.675
AUBIESAT-1 27 May 20:44:30 20:47:47 62° 106° (ESE) 20:51:06 437.475
STRAND 1 27 May 20:50:34 20:55:30 47° 289° (WNW) 21:00:24 437.568
CUBESAT XI-V 27 May 20:53:29 20:56:27 16° 294° (WNW) 20:59:14 437.345
DOVE 4 27 May 20:55:43 21:00:47 66° 74° (ENE) 21:06:04 437.250
CANX-2 27 May 21:10:21 21:14:37 81° 258° (WSW) 21:18:53 2200.000
CUTE 1.7 + AOD 2 27 May 21:13:46 21:18:03 82° 258° (WSW) 21:22:19 437.475
ZACube-1 27 May 21:15:27 21:18:12 16° 67° (ENE) 21:21:07 437.345
CUBEBUG 2 27 May 21:15:56 21:19:50 26° 70° (ENE) 21:23:51 437.445
Oscar 11 27 May 21:24:56 21:28:48 33° 72° (ENE) 21:32:43 145.826/435.025
AIST 1 27 May 21:27:09 21:31:20 55° 280° (W) 21:35:33
DX 1 27 May 21:28:24 21:28:31 10° 63° (ENE) 21:28:54 434.975-435.025
YUBILEINY 27 May 21:29:11 21:33:48 15° 281° (W) 21:37:48 435.215
Cosmos 2491 27 May 21:29:22 21:37:00 31° 291° (WNW) 21:44:30 435.465 / 435.565
SEEDS 27 May 21:35:17 21:39:26 55° 260° (W) 21:43:35 437.485
GOMX 1 27 May 21:37:06 21:41:47 34° 266° (W) 21:46:37 467.674
BRITE-PL 27 May 21:39:37 21:43:35 22° 270° (W) 21:47:35 437.365/2234.400
COMPASS 1 27 May 21:47:19 21:51:24 50° 261° (W) 21:55:28 437.405
AAUSAT CUBESAT 2 27 May 21:58:53 22:02:51 42° 262° (W) 22:06:49 437.432
UWE-3 27 May 22:00:47 22:05:24 62° 75° (ENE) 22:10:02 435.000/436.395/437.385
CINEMA 3 27 May 22:05:29 22:10:19 50° 262° (W) 22:15:13 145.822/145.860
Cosmos 2504 27 May 22:08:35 22:15:46 75° 265° (W) 22:22:58 435.465 / 435.565
FUNcube-1 27 May 22:08:45 22:13:15 58° 75° (ENE) 22:17:45 145.935
AISAT 27 May 22:14:38 22:17:29 17° 67° (ENE) 22:20:30 437.250
ISS 27 May 22:20:14 22:21:29 12° 129° (SE) 22:22:51 145.825
DELFI C3 27 May 22:20:25 22:24:26 77° 258° (WSW) 22:28:29 145.870
HO-68 27 May 22:32:29 22:37:56 22° 269° (W) 22:43:06 435.675
DOVE 4 27 May 22:36:17 22:39:07 14° 273° (W) 22:41:42 437.250
HUMSAT D 27 May 22:37:06 22:41:19 54° 74° (ENE) 22:45:33 437.325/437.525
TIGRISAT 27 May 22:45:14 22:47:27 14° 90° (E) 22:49:51 435.000
ZACube-1 27 May 22:49:44 22:54:13 49° 262° (W) 22:58:39 437.345
UKube-1 27 May 22:49:52 22:54:11 78° 76° (ENE) 22:58:32 .
CUBEBUG 2 27 May 22:52:11 22:56:26 31° 265° (W) 23:00:37 437.445
CUSAT 1 27 May 22:59:03 23:03:00 16° 57° (ENE) 23:06:48 437.405
DX 1 27 May 22:59:52 23:04:13 75° 258° (WSW) 23:08:36 434.975-435.025
Oscar 11 27 May 23:01:50 23:05:05 20° 267° (W) 23:08:13 145.826/435.025
UNISAT 6 27 May 23:04:59 23:08:33 25° 94° (E) 23:12:08 437.425
CUBEBUG 1 27 May 23:13:30 23:17:26 35° 72° (ENE) 23:21:27 437.445
VELOX 1 27 May 23:17:17 23:21:43 80° 76° (ENE) 23:26:12 145.980
50 SAT 27 May 23:21:29 23:25:30 80° 258° (WSW) 23:29:30 437.505
ESTCUBE 1 27 May 23:23:41 23:28:02 54° 74° (ENE) 23:32:26 437.505/2401.250
NANOSAT C BR1 27 May 23:27:40 23:30:42 19° 93° (E) 23:33:50 145.865
QB50P2 27 May 23:35:59 23:39:30 25° 95° (E) 23:43:03 145.880/145.840
UWE-3 27 May 23:40:19 23:42:24 12° 272° (W) 23:44:13 435.000/436.395/437.385
PCSat 27 May 23:47:42 23:50:04 13° 105° (ESE) 23:52:45 145.827
ANTELSAT 27 May 23:47:46 23:52:09 79° 101° (E) 23:56:26 437.575/2403.000
POPSAT HIP 1 27 May 23:47:46 23:51:38 33° 97° (E) 23:55:30 437.405
FUNcube-1 27 May 23:47:49 23:49:59 13° 271° (W) 23:51:54 145.935
DUCHIFAT 1 27 May 23:48:57 23:52:49 33° 97° (E) 23:56:40 145.980
SPROUT 27 May 23:49:28 23:52:52 24° 70° (ENE) 23:56:23 437.525
AISAT 27 May 23:49:32 23:53:46 42° 262° (W) 23:58:02 437.250
ISS 27 May 23:54:21 23:57:34 63° 323° (NW) 00:00:48 145.825
GONETS M04 27 May 23:58:23 00:06:16 37° 71° (ENE) 00:14:13
BUGSAT 1 28 May 00:07:54 00:11:52 37° 97° (E) 00:15:50 437.445
TISAT 1 28 May 00:08:59 00:12:35 28° 71° (ENE) 00:16:17 437.305
DANDE 28 May 00:14:28 00:21:59 51° 73° (ENE) 00:27:55 436.750
HUMSAT D 28 May 00:15:37 00:17:27 12° 271° (W) 00:19:03 437.325/437.525
TIGRISAT 28 May 00:20:21 00:24:33 45° 287° (WNW) 00:28:37 435.000
QB50P1 28 May 00:31:26 00:35:43 75° 284° (WNW) 00:39:57 145.935-145.965
POLYITAN 1 28 May 00:33:58 00:38:15 69° 285° (WNW) 00:42:28 437.675
CUSAT 1 28 May 00:39:59 00:47:06 81° 263° (W) 00:52:30 437.405
UNISAT 6 28 May 00:41:37 00:45:19 26° 290° (WNW) 00:48:52 437.425
O/OREOS (USA 219) 28 May 00:42:16 00:44:37 14° 54° (NE) 00:47:08 437.305
CUBEBUG 1 28 May 00:50:46 00:53:56 19° 268° (W) 00:57:01 437.445
NANOSAT C BR1 28 May 01:02:47 01:06:39 33° 289° (WNW) 01:10:26 145.865
ESTCUBE 1 28 May 01:03:07 01:05:19 13° 271° (W) 01:07:16 437.505/2401.250
QB50P2 28 May 01:11:45 01:15:21 26° 290° (WNW) 01:18:50 145.880/145.840
VERMONT LUNAR 28 May 01:16:20 01:18:57 23° 151° (SSE) 01:21:36 437.305
POPSAT HIP 1 28 May 01:24:08 01:27:19 20° 292° (WNW) 01:30:23 437.405
SPROUT 28 May 01:25:06 01:28:51 28° 265° (W) 01:32:35 437.525
DUCHIFAT 1 28 May 01:25:16 01:28:26 20° 292° (WNW) 01:31:28 145.980
ITUPSAT 1 28 May 01:27:05 01:31:17 33° 70° (ENE) 01:35:34 437.325
PCSat 28 May 01:27:30 01:32:55 75° 299° (WNW) 01:38:22 145.827
ISS 28 May 01:32:42 01:34:31 14° 342° (NNW) 01:36:18 145.825
BEESAT 28 May 01:33:55 01:38:19 39° 71° (ENE) 01:42:46 436.000
SWISSCUBE 28 May 01:42:21 01:46:57 53° 73° (ENE) 01:51:35 437.505
BUGSAT 1 28 May 01:44:07 01:47:05 18° 292° (WNW) 01:49:54 437.445
TISAT 1 28 May 01:44:58 01:48:22 23° 266° (W) 01:51:43 437.305
GONETS M04 28 May 01:55:03 02:03:20 47° 271° (W) 02:11:26
PHONESAT 2.4 28 May 01:57:32 01:59:30 15° 146° (SSE) 02:01:34 2401.200-2431.200
DANDE 28 May 01:58:31 02:04:40 27° 276° (W) 02:09:35 436.750
Oscar 19 28 May 02:06:43 02:11:24 35° 96° (E) 02:16:05 437.125/150
BEESAT 3 28 May 02:19:20 02:22:28 21° 47° (NE) 02:25:39 437.485
O/OREOS (USA 219) 28 May 02:20:06 02:24:29 56° 252° (WSW) 02:28:52 437.305
ITAMSAT 1 28 May 02:24:33 02:27:10 14° 89° (E) 02:30:04 435.822/435.867
STARS 28 May 02:25:31 02:27:54 15° 66° (ENE) 02:30:28 437.465
CUSAT 1 28 May 02:26:58 02:28:14 10° 283° (WNW) 02:28:58 437.405
Cosmos 2499 28 May 02:34:37 02:41:37 64° 80° (E) 02:48:46 435.465 / 435.565
VERMONT LUNAR 28 May 02:52:41 02:55:55 88° 167° (SSE) 02:59:09 437.305
KKS-1 28 May 02:58:02 03:02:22 53° 74° (ENE) 03:06:47 437.445
ITUPSAT 1 28 May 03:05:22 03:09:15 24° 266° (W) 03:13:02 437.325
AIST 2 28 May 03:06:20 03:09:06 17° 45° (NE) 03:11:55 435.215
Gurwin Techsat 1B 28 May 03:06:38 03:11:30 36° 97° (E) 03:16:24 435.225
BEESAT 2 28 May 03:08:58 03:13:00 53° 56° (NE) 03:16:57 435.950
BEESAT 28 May 03:12:49 03:16:20 20° 267° (W) 03:19:44 436.000
PCSat 28 May 03:14:54 03:17:23 13° 320° (NW) 03:19:38 145.827
SWISSCUBE 28 May 03:22:26 03:25:12 15° 270° (W) 03:27:44 437.505
SO-50 28 May 03:24:02 03:28:41 77° 120° (ESE) 03:33:32 436.795
PHONESAT 2.4 28 May 03:33:47 03:37:14 61° 160° (SSE) 03:40:40 2401.200-2431.200
HORYU 2 28 May 03:45:36 03:47:10 12° 89° (E) 03:48:59 437.375
Oscar 19 28 May 03:46:20 03:50:38 27° 292° (WNW) 03:54:49 437.125/150
BEESAT 3 28 May 03:56:50 04:00:34 34° 245° (WSW) 04:04:12 437.485
STARS 28 May 03:59:38 04:03:58 51° 260° (W) 04:08:20 437.465
ITAMSAT 1 28 May 04:02:01 04:07:12 64° 286° (WNW) 04:12:22 435.822/435.867
JAS-2 28 May 04:19:55 04:24:25 30° 96° (E) 04:29:10 435.910
Cosmos 2499 28 May 04:29:19 04:34:11 19° 276° (W) 04:38:48 435.465 / 435.565
VERMONT LUNAR 28 May 04:30:02 04:33:13 62° 2° (N) 04:36:24 437.305
MOZHAYETS 4 28 May 04:35:00 04:39:20 44° 73° (ENE) 04:43:41
KKS-1 28 May 04:37:06 04:39:24 13° 270° (W) 04:41:29 437.445
AIST 2 28 May 04:43:55 04:48:01 51° 243° (WSW) 04:52:00 435.215
Gurwin Techsat 1B 28 May 04:46:54 04:51:22 27° 292° (WNW) 04:55:43 435.225
ISS 28 May 04:47:19 04:49:34 17° 22° (NNE) 04:51:51 145.825
BEESAT 2 28 May 04:48:50 04:50:40 12° 250° (WSW) 04:52:17 435.950
SO-50 28 May 05:06:53 05:09:53 16° 320° (NW) 05:12:48 436.795
AO-7 28 May 05:07:23 05:15:40 63° 103° (ESE) 05:23:58 29.400- 29.500
PHONESAT 2.4 28 May 05:11:55 05:15:23 65° 357° (N) 05:18:50 2401.200-2431.200
HORYU 2 28 May 05:19:54 05:24:16 57° 286° (WNW) 05:28:35 437.375
Cosmos 2491 28 May 05:43:45 05:50:39 26° 66° (ENE) 05:57:47 435.465 / 435.565
JAS-2 28 May 06:05:08 06:09:35 29° 291° (WNW) 06:14:04 435.910
VERMONT LUNAR 28 May 06:07:17 06:10:27 62° 199° (SSW) 06:13:36 437.305
MOZHAYETS 4 28 May 06:13:50 06:16:49 16° 269° (W) 06:19:36
CUBESAT XI-V 28 May 06:17:00 06:21:18 42° 73° (ENE) 06:25:41 437.345
ISS 28 May 06:23:04 06:26:20 80° 221° (SW) 06:29:36 145.825
CUTE-I 28 May 06:24:28 06:27:51 17° 91° (E) 06:31:27 437.470
STRAND 1 28 May 06:27:08 06:31:11 25° 67° (ENE) 06:35:22 437.568
YUBILEINY 28 May 06:34:44 06:40:51 23° 82° (E) 06:47:19 435.215
Cubesat XI-IV 28 May 06:44:37 06:49:06 27° 95° (E) 06:53:41 437.490
PHONESAT 2.4 28 May 06:50:08 06:53:36 89° 220° (SW) 06:57:05 2401.200-2431.200
AO-7 28 May 07:00:59 07:08:00 30° 301° (WNW) 07:14:49 29.400- 29.500
PRISM 28 May 07:08:42 07:12:45 72° 75° (ENE) 07:16:50 437.425
M-CUBED/EXP-1 PRIME 28 May 07:23:42 07:27:55 70° 71° (ENE) 07:31:48 437.505
AUBIESAT-1 28 May 07:30:41 07:34:51 73° 72° (ENE) 07:38:43 437.475
AIST 1 28 May 07:35:40 07:39:32 30° 76° (ENE) 07:43:26
Cosmos 2491 28 May 07:39:36 07:48:21 67° 267° (W) 07:56:59 435.465 / 435.565
VERMONT LUNAR 28 May 07:45:30 07:47:16 14° 213° (SSW) 07:48:57 437.305
CUBESAT XI-V 28 May 07:55:52 07:59:00 17° 269° (W) 08:01:59 437.345
RS-15 28 May 07:58:05 08:06:45 30° 106° (ESE) 08:15:55 29.354- 29.394
CUTE-I 28 May 08:03:05 08:08:21 56° 287° (WNW) 08:13:35 437.470
STRAND 1 28 May 08:05:33 08:10:14 36° 263° (W) 08:14:55 437.568
BRITE-PL 28 May 08:07:19 08:10:58 18° 88° (E) 08:14:42 437.365/2234.400
HO-68 28 May 08:15:32 08:17:08 11° 85° (E) 08:19:23 435.675
Cubesat XI-IV 28 May 08:24:24 08:29:17 36° 291° (WNW) 08:34:06 437.490
YUBILEINY 28 May 08:28:11 08:36:56 71° 280° (W) 08:45:40 435.215
PHONESAT 2.4 28 May 08:28:34 08:31:30 25° 209° (SSW) 08:34:24 2401.200-2431.200
PCSat 28 May 08:35:51 08:37:30 11° 39° (NE) 08:39:23 145.827
Cosmos 2504 28 May 08:55:14 08:59:40 17° 82° (E) 09:04:26 435.465 / 435.565
DOVE 4 28 May 08:57:36 09:01:16 21° 90° (E) 09:04:56 437.250
CANX-2 28 May 08:57:52 09:00:47 19° 92° (E) 09:03:49 2200.000
CUTE 1.7 + AOD 2 28 May 09:01:15 09:04:07 18° 92° (E) 09:07:07 437.475
AIST 1 28 May 09:13:43 09:17:02 21° 271° (W) 09:20:13
SEEDS 28 May 09:21:17 09:24:44 25° 95° (E) 09:28:13 437.485
COMPASS 1 28 May 09:32:17 09:35:47 27° 95° (E) 09:39:21 437.405
GOMX 1 28 May 09:40:02 09:45:26 87° 108° (ESE) 09:50:29 467.674
Cosmos 2491 28 May 09:42:14 09:43:44 10° 284° (WNW) 09:44:23 435.465 / 435.565
AAUSAT CUBESAT 2 28 May 09:43:08 09:46:47 30° 96° (E) 09:50:28 437.432
TIGRISAT 28 May 09:43:22 09:45:27 13° 65° (ENE) 09:47:46 435.000
BRITE-PL 28 May 09:44:24 09:49:57 57° 287° (WNW) 09:55:10 437.365/2234.400
UWE-3 28 May 09:54:12 09:56:05 13° 89° (E) 09:58:10 435.000/436.395/437.385
HO-68 28 May 09:59:00 10:06:11 77° 104° (ESE) 10:13:20 435.675
FUNcube-1 28 May 10:01:05 10:02:18 11° 88° (E) 10:03:47 145.935
DELFI C3 28 May 10:02:11 10:04:31 15° 92° (E) 10:07:00 145.870
CINEMA 3 28 May 10:02:12 10:06:41 44° 97° (E) 10:10:58 145.822/145.860
UNISAT 6 28 May 10:02:51 10:06:22 22° 69° (ENE) 10:09:58 437.425
RS-15 28 May 10:07:26 10:18:17 70° 305° (NW) 10:29:29 29.354- 29.394
PCSat 28 May 10:16:40 10:22:04 66° 59° (ENE) 10:27:28 145.827
NANOSAT C BR1 28 May 10:20:12 10:22:12 14° 66° (ENE) 10:24:25 145.865
QB50P2 28 May 10:28:27 10:31:13 17° 67° (ENE) 10:34:08 145.880/145.840
YUBILEINY 28 May 10:31:46 10:35:46 13° 303° (WNW) 10:39:07 435.215
CANX-2 28 May 10:33:02 10:36:50 33° 288° (WNW) 10:40:35 2200.000
DOVE 4 28 May 10:34:29 10:39:16 41° 289° (WNW) 10:43:45 437.250
CUTE 1.7 + AOD 2 28 May 10:36:21 10:40:10 33° 288° (WNW) 10:43:56 437.475
POPSAT HIP 1 28 May 10:39:47 10:43:04 22° 69° (ENE) 10:46:27 437.405
ZACube-1 28 May 10:40:04 10:43:58 34° 96° (E) 10:47:49 437.345
UKube-1 28 May 10:40:13 10:42:26 14° 91° (E) 10:44:52 .
DUCHIFAT 1 28 May 10:40:33 10:43:48 22° 69° (ENE) 10:47:10 145.980
Cosmos 2504 28 May 10:43:55 10:52:19 86° 277° (W) 11:00:09 435.465 / 435.565
CUBEBUG 2 28 May 10:44:20 10:48:45 64° 100° (E) 10:52:59 437.445
ANTELSAT 28 May 10:44:58 10:49:35 60° 74° (ENE) 10:54:10 437.575/2403.000
Oscar 11 28 May 10:48:59 10:53:18 81° 102° (ESE) 10:57:36 145.826/435.025
DX 1 28 May 10:50:17 10:53:29 20° 93° (E) 10:56:49 434.975-435.025
SEEDS 28 May 10:57:03 11:00:28 24° 290° (WNW) 11:03:49 437.485
BUGSAT 1 28 May 10:57:12 11:00:26 23° 69° (ENE) 11:03:47 437.445
50 SAT 28 May 11:01:00 11:02:37 13° 90° (E) 11:04:26 437.505
COMPASS 1 28 May 11:08:04 11:11:23 23° 290° (WNW) 11:14:35 437.405
VELOX 1 28 May 11:10:15 11:13:04 17° 92° (E) 11:16:04 145.980
TIGRISAT 28 May 11:17:05 11:21:45 64° 259° (W) 11:26:22 435.000
AAUSAT CUBESAT 2 28 May 11:19:09 11:22:14 20° 291° (WNW) 11:25:13 437.432
ESTCUBE 1 28 May 11:19:31 11:21:20 13° 89° (E) 11:23:26 437.505/2401.250
GOMX 1 28 May 11:20:42 11:22:46 12° 299° (WNW) 11:24:30 467.674
QB50P1 28 May 11:22:34 11:26:48 69° 76° (ENE) 11:31:06 145.935-145.965
POLYITAN 1 28 May 11:25:20 11:29:38 75° 76° (ENE) 11:33:57 437.675
UWE-3 28 May 11:28:48 11:33:02 49° 286° (WNW) 11:37:07 435.000/436.395/437.385
FUNcube-1 28 May 11:34:53 11:39:06 55° 286° (WNW) 11:43:11 145.935
JUGNU 28 May 11:36:04 11:37:42 11° 177° (S) 11:39:22 437.505
DELFI C3 28 May 11:36:06 11:39:48 36° 287° (WNW) 11:43:29 145.870
UNISAT 6 28 May 11:38:37 11:42:57 36° 263° (W) 11:47:14 437.425
CINEMA 3 28 May 11:40:22 11:43:31 18° 294° (WNW) 11:46:26 145.822/145.860
AISAT 28 May 11:41:22 11:45:35 39° 98° (E) 11:49:47 437.250
DANDE 28 May 11:44:29 11:45:59 11° 76° (ENE) 11:48:12 436.750
HO-68 28 May 11:48:10 11:53:15 21° 301° (WNW) 11:58:03 435.675
NANOSAT C BR1 28 May 11:53:28 11:57:39 52° 261° (W) 12:01:51 145.865
SO-50 28 May 11:56:46 12:01:37 50° 54° (NE) 12:06:22 436.795
HUMSAT D 28 May 11:58:05 12:02:12 65° 285° (WNW) 12:06:16 437.325/437.525
CUSAT 1 28 May 12:01:29 12:06:49 22° 83° (E) 12:12:54 437.405
PCSat 28 May 12:01:47 12:05:00 15° 255° (WSW) 12:07:56 145.827
QB50P2 28 May 12:02:48 12:06:50 39° 262° (W) 12:10:53 145.880/145.840
UKube-1 28 May 12:14:42 12:18:54 47° 287° (WNW) 12:23:03 .
POPSAT HIP 1 28 May 12:15:00 12:18:48 30° 264° (W) 12:22:34 437.405
DUCHIFAT 1 28 May 12:15:42 12:19:29 30° 264° (W) 12:23:14 145.980
ZACube-1 28 May 12:16:59 12:20:07 19° 292° (WNW) 12:23:04 437.345
CUBEBUG 2 28 May 12:23:17 12:24:54 12° 296° (WNW) 12:26:18 437.445
ANTELSAT 28 May 12:24:36 12:26:48 13° 271° (W) 12:28:44 437.575/2403.000
RS-15 28 May 12:24:43 12:33:20 24° 334° (NNW) 12:41:57 29.354- 29.394
DX 1 28 May 12:25:52 12:29:51 33° 289° (WNW) 12:33:45 434.975-435.025
BUGSAT 1 28 May 12:32:12 12:35:47 27° 265° (W) 12:39:23 437.445
50 SAT 28 May 12:33:57 12:37:37 40° 287° (WNW) 12:41:13 437.505
CUBEBUG 1 28 May 12:39:15 12:43:44 86° 102° (ESE) 12:48:11 437.445
Cosmos 2504 28 May 12:42:13 12:46:56 15° 297° (WNW) 12:51:01 435.465 / 435.565
VELOX 1 28 May 12:45:37 12:49:52 41° 288° (WNW) 12:54:03 145.980
ESTCUBE 1 28 May 12:54:11 12:58:39 57° 286° (WNW) 13:03:06 437.505/2401.250
SRMSAT 28 May 12:56:31 12:57:42 11° 175° (S) 12:58:54 437.500
GONETS M04 28 May 12:57:36 13:05:42 44° 89° (E) 13:13:57
SPROUT 28 May 13:12:20 13:16:36 54° 100° (E) 13:20:50 437.525
AISAT 28 May 13:18:41 13:21:55 19° 293° (WNW) 13:25:00 437.250
DANDE 28 May 13:20:33 13:27:35 65° 94° (E) 13:35:58 436.750
Oscar 19 28 May 13:22:11 13:27:06 45° 72° (ENE) 13:32:04 437.125/150
TISAT 1 28 May 13:29:40 13:33:54 60° 101° (E) 13:38:05 437.305
BEESAT 28 May 13:37:57 13:38:59 11° 88° (E) 13:40:22 436.000
SO-50 28 May 13:38:15 13:41:50 19° 249° (WSW) 13:45:12 436.795
ITAMSAT 1 28 May 13:41:06 13:44:45 21° 66° (ENE) 13:48:35 435.822/435.867
CUSAT 1 28 May 13:41:16 13:48:40 75° 281° (W) 13:57:03 437.405
SWISSCUBE 28 May 13:45:19 13:47:57 15° 90° (E) 13:50:48 437.505
AO-7 28 May 14:16:56 14:21:21 16° 51° (NE) 14:26:12 29.400- 29.500
Gurwin Techsat 1B 28 May 14:26:24 14:31:30 51° 72° (ENE) 14:36:39 435.225
JAS-2 28 May 14:33:23 14:36:13 14° 63° (ENE) 14:39:17 435.910
HORYU 2 28 May 14:43:56 14:44:55 11° 64° (ENE) 14:46:09 437.375
RS-15 28 May 14:44:18 14:51:26 18° 10° (N) 14:58:54 29.354- 29.394
SRMSAT 28 May 14:44:42 14:45:58 11° 185° (S) 14:47:12 437.500
SPROUT 28 May 14:50:05 14:52:16 13° 294° (WNW) 14:54:15 437.525
KKS-1 28 May 14:52:54 14:54:05 11° 89° (E) 14:55:34 437.445
O/OREOS (USA 219) 28 May 14:53:11 14:56:14 19° 102° (ESE) 14:59:27 437.305
GONETS M04 28 May 14:54:28 15:02:39 40° 288° (WNW) 15:10:46
Oscar 19 28 May 15:02:49 15:06:43 20° 268° (W) 15:10:27 437.125/150
DANDE 28 May 15:05:18 15:11:38 28° 296° (WNW) 15:18:28 436.750
ITUPSAT 1 28 May 15:05:58 15:10:47 85° 283° (WNW) 15:15:35 437.325
TISAT 1 28 May 15:07:34 15:09:12 12° 295° (WNW) 15:10:37 437.305
Cosmos 2499 28 May 15:08:54 15:16:46 57° 93° (E) 15:24:08 435.465 / 435.565
BEESAT 28 May 15:12:39 15:17:26 71° 285° (WNW) 15:22:11 436.000
ITAMSAT 1 28 May 15:18:58 15:23:57 47° 261° (W) 15:28:57 435.822/435.867
SWISSCUBE 28 May 15:21:31 15:26:11 53° 287° (WNW) 15:30:49 437.505
CUSAT 1 28 May 15:28:20 15:33:03 16° 303° (WNW) 15:37:30 437.405
STARS 28 May 15:50:50 15:54:46 31° 96° (E) 15:58:41 437.465
AO-7 28 May 16:04:42 16:12:56 74° 69° (ENE) 16:21:15 29.400- 29.500
Gurwin Techsat 1B 28 May 16:08:05 16:11:51 19° 269° (W) 16:15:25 435.225
JAS-2 28 May 16:14:07 16:20:52 89° 253° (WSW) 16:26:49 435.910
HORYU 2 28 May 16:16:33 16:21:02 73° 258° (WSW) 16:25:31 437.375
KKS-1 28 May 16:26:47 16:31:13 62° 286° (WNW) 16:35:38 437.445
O/OREOS (USA 219) 28 May 16:31:12 16:35:26 38° 297° (WNW) 16:39:37 437.305
MOZHAYETS 4 28 May 16:33:37 16:34:56 11° 88° (E) 16:36:34
RS-15 28 May 16:57:49 17:08:24 40° 42° (NE) 17:19:33 29.354- 29.394
BEESAT 2 28 May 17:03:25 17:05:22 14° 110° (ESE) 17:07:32 435.950
Cosmos 2499 28 May 17:03:41 17:10:20 27° 290° (WNW) 17:16:25 435.465 / 435.565
